| time (UTC) | temp F | wind direction | speed MPH | gust MPH | rain 1hr in | rain 24hr in | rain mn in | humidity % | barometer mb |
| 20260903161508 | 57 | 250 | 4.0 | 7.0 | 0.00 | 0.08 | 0.00 | 70 | 1010.4 |
| 20260903160007 | 57 | 67 | 0.0 | 4.0 | 0.00 | 0.08 | 0.00 | 72 | 1010.5 |
| 20260903154502 | 56 | 359 | 0.0 | 3.0 | 0.00 | 0.08 | 0.00 | 75 | 1010.4 |
| 20260903153002 | 55 | 312 | 0.0 | 2.0 | 0.00 | 0.08 | 0.00 | 79 | 1010.4 |
| 20260903151503 | 54 | 212 | 0.0 | 0.0 | 0.00 | 0.08 | 0.00 | 78 | 1010.4 |
| 20260903150108 | 56 | 75 | 0.0 | 0.0 | 0.00 | 0.08 | 0.00 | 80 | 1010.5 |
| 20260903144558 | 51 | 75 | 0.0 | 0.0 | 0.00 | 0.08 | 0.00 | 90 | 1010.5 |
| 20260903143056 | 48 | 75 | 0.0 | 0.0 | 0.00 | 0.08 | 0.00 | 93 | 1010.4 |
| 20260903141557 | 46 | 75 | 0.0 | 0.0 | 0.00 | 0.08 | 0.00 | 95 | 1010.2 |
| 20260903140053 | 43 | 75 | 0.0 | 1.0 | 0.00 | 0.08 | 0.00 | 94 | 1010.1 |
| 20260903134550 | 43 | 75 | 0.0 | 1.0 | 0.00 | 0.08 | 0.00 | 93 | 1009.9 |
| 20260903133047 | 44 | 75 | 0.0 | 0.0 | 0.00 | 0.08 | 0.00 | 94 | 1009.8 |
| 20260903131546 | 44 | 75 | 0.0 | 0.0 | 0.00 | 0.08 | 0.00 | 94 | 1009.7 |
| 20260903130108 | 44 | 75 | 0.0 | 1.0 | 0.00 | 0.08 | 0.00 | 94 | 1009.5 |
| 20260903124543 | 44 | 75 | 0.0 | 1.0 | 0.00 | 0.08 | 0.00 | 93 | 1009.6 |
| 20260903123040 | 45 | 75 | 0.0 | 0.0 | 0.00 | 0.08 | 0.00 | 93 | 1009.7 |
| 20260903121545 | 46 | 75 | 0.0 | 2.0 | 0.00 | 0.08 | 0.00 | 92 | 1009.7 |
| 20260903120035 | 47 | 75 | 0.0 | 0.0 | 0.00 | 0.08 | 0.00 | 93 | 1009.4 |
| 20260903114535 | 47 | 75 | 0.0 | 1.0 | 0.00 | 0.08 | 0.00 | 94 | 1009.4 |
| 20260903113036 | 47 | 75 | 0.0 | 0.0 | 0.00 | 0.08 | 0.00 | 92 | 1009.3 |
| 20260903111529 | 47 | 75 | 0.0 | 3.0 | 0.00 | 0.08 | 0.00 | 92 | 1009.3 |
| 20260903110103 | 48 | 82 | 0.0 | 1.0 | 0.00 | 0.08 | 0.00 | 92 | 1008.9 |
| 20260903104523 | 49 | 82 | 0.0 | 1.0 | 0.00 | 0.08 | 0.00 | 92 | 1008.8 |
| 20260903103022 | 50 | 82 | 0.0 | 1.0 | 0.00 | 0.08 | 0.00 | 93 | 1008.8 |
| 20260903101517 | 50 | 82 | 0.0 | 1.0 | 0.00 | 0.08 | 0.00 | 93 | 1008.6 |
| 20260903100014 | 51 | 82 | 0.0 | 2.0 | 0.00 | 0.08 | 0.00 | 93 | 1008.6 |
| 20260903094523 | 52 | 82 | 1.0 | 3.0 | 0.00 | 0.08 | 0.00 | 93 | 1008.5 |
| 20260903093007 | 53 | 132 | 0.0 | 0.0 | 0.00 | 0.08 | 0.00 | 92 | 1008.3 |
| 20260903091505 | 53 | 133 | 0.0 | 0.0 | 0.00 | 0.08 | 0.00 | 92 | 1008.3 |
| 20260903090005 | 53 | 133 | 0.0 | 0.0 | 0.00 | 0.08 | 0.00 | 92 | 1008.3 |
| 20260903084501 | 53 | 133 | 0.0 | 1.0 | 0.00 | 0.08 | 0.00 | 91 | 1008.0 |
| 20260903083158 | 54 | 208 | 0.0 | 0.0 | 0.00 | 0.08 | 0.00 | 89 | 1007.8 |
| 20260903081607 | 54 | 208 | 0.0 | 1.0 | 0.00 | 0.08 | 0.00 | 90 | 1007.8 |
| 20260903080056 | 54 | 208 | 0.0 | 2.0 | 0.00 | 0.08 | 0.00 | 91 | 1007.7 |
| 20260903074606 | 54 | 208 | 0.0 | 1.0 | 0.01 | 0.08 | 0.00 | 91 | 1007.5 |
| 20260903073052 | 54 | 208 | 0.0 | 1.0 | 0.01 | 0.08 | 0.00 | 90 | 1007.3 |
| 20260903071553 | 55 | 208 | 0.0 | 1.0 | 0.01 | 0.08 | 0.00 | 89 | 1007.2 |
| 20260903070047 | 56 | 208 | 0.0 | 2.0 | 0.01 | 0.08 | 0.00 | 89 | 1007.2 |
| 20260903064645 | 56 | 202 | 0.0 | 1.0 | 0.00 | 0.07 | 0.07 | 89 | 1007.2 |
| 20260903063045 | 56 | 248 | 0.0 | 1.0 | 0.00 | 0.07 | 0.07 | 89 | 1007.2 |
| 20260903061552 | 56 | 249 | 0.0 | 1.0 | 0.01 | 0.07 | 0.07 | 89 | 1007.3 |
| 20260903060045 | 56 | 246 | 0.0 | 2.0 | 0.02 | 0.07 | 0.07 | 89 | 1007.2 |
| 20260903054548 | 56 | 245 | 0.0 | 3.0 | 0.02 | 0.07 | 0.07 | 90 | 1007.2 |
| 20260903053102 | 56 | 287 | 1.0 | 8.0 | 0.03 | 0.07 | 0.07 | 90 | 1007.4 |
| 20260903051543 | 57 | 284 | 1.0 | 4.0 | 0.03 | 0.06 | 0.06 | 89 | 1007.3 |
| 20260903050143 | 57 | 287 | 2.0 | 4.0 | 0.02 | 0.05 | 0.05 | 89 | 1007.4 |
| 20260903044551 | 57 | 275 | 3.0 | 8.0 | 0.03 | 0.05 | 0.05 | 88 | 1007.1 |
| 20260903043040 | 57 | 262 | 2.0 | 6.0 | 0.02 | 0.04 | 0.04 | 87 | 1007.2 |
| 20260903041539 | 58 | 277 | 5.0 | 9.0 | 0.01 | 0.03 | 0.03 | 85 | 1007.2 |
| 20260903040039 | 58 | 295 | 2.0 | 7.0 | 0.00 | 0.02 | 0.02 | 82 | 1007.3 |
| 20260903034537 | 58 | 267 | 1.0 | 5.0 | 0.00 | 0.02 | 0.02 | 82 | 1007.0 |
| 20260903033037 | 58 | 304 | 1.0 | 5.0 | 0.00 | 0.02 | 0.02 | 82 | 1006.8 |
| 20260903031637 | 58 | 271 | 1.0 | 7.0 | 0.00 | 0.02 | 0.02 | 81 | 1006.7 |
| 20260903030041 | 59 | 355 | 0.0 | 3.0 | 0.00 | 0.02 | 0.02 | 81 | 1006.6 |
| 20260903024542 | 59 | 270 | 0.0 | 3.0 | 0.00 | 0.02 | 0.02 | 80 | 1006.6 |
| 20260903023035 | 59 | 249 | 0.0 | 6.0 | 0.00 | 0.02 | 0.02 | 79 | 1006.7 |
| 20260903021536 | 59 | 255 | 0.0 | 1.0 | 0.00 | 0.02 | 0.02 | 79 | 1006.7 |
| 20260903020034 | 59 | 256 | 1.0 | 5.0 | 0.00 | 0.02 | 0.02 | 79 | 1006.7 |
| 20260903014533 | 60 | 283 | 0.0 | 3.0 | 0.00 | 0.02 | 0.02 | 78 | 1006.7 |
| 20260903013132 | 60 | 269 | 1.0 | 5.0 | 0.00 | 0.02 | 0.02 | 77 | 1006.8 |
| 20260903011540 | 60 | 342 | 0.0 | 3.0 | 0.00 | 0.02 | 0.02 | 75 | 1006.7 |
| 20260903010031 | 60 | 263 | 0.0 | 4.0 | 0.00 | 0.02 | 0.02 | 74 | 1006.8 |
| 20260903004532 | 61 | 222 | 0.0 | 3.0 | 0.00 | 0.02 | 0.02 | 74 | 1006.8 |
| 20260903003030 | 61 | 287 | 1.0 | 7.0 | 0.00 | 0.02 | 0.02 | 68 | 1006.9 |
| 20260903001529 | 61 | 36 | 3.0 | 8.0 | 0.00 | 0.02 | 0.02 | 67 | 1006.9 |
| 20260903000028 | 61 | 104 | 3.0 | 8.0 | 0.00 | 0.02 | 0.02 | 67 | 1007.0 |
| 20260902234627 | 61 | 53 | 3.0 | 10.0 | 0.00 | 0.02 | 0.02 | 67 | 1007.1 |
| 20260902233035 | 61 | 69 | 3.0 | 7.0 | 0.00 | 0.02 | 0.02 | 71 | 1007.0 |
| 20260902231527 | 61 | 49 | 2.0 | 9.0 | 0.00 | 0.02 | 0.02 | 70 | 1006.9 |
| 20260902230026 | 61 | 94 | 2.0 | 9.0 | 0.01 | 0.02 | 0.02 | 70 | 1007.0 |
| 20260902224525 | 62 | 58 | 6.0 | 12.0 | 0.02 | 0.02 | 0.02 | 66 | 1006.8 |
| 20260902223025 | 62 | 81 | 6.0 | 17.0 | 0.02 | 0.02 | 0.02 | 66 | 1006.6 |
| 20260902221524 | 62 | 82 | 4.0 | 12.0 | 0.02 | 0.02 | 0.02 | 71 | 1006.6 |
| 20260902220125 | 62 | 60 | 5.0 | 17.0 | 0.01 | 0.01 | 0.01 | 70 | 1006.7 |
| 20260902214521 | 66 | 327 | 8.0 | 22.0 | 0.00 | 0.00 | 0.00 | 56 | 1006.6 |
| 20260902213021 | 67 | 89 | 9.0 | 17.0 | 0.00 | 0.00 | 0.00 | 52 | 1006.2 |
| 20260902211520 | 69 | 57 | 8.0 | 16.0 | 0.00 | 0.00 | 0.00 | 50 | 1005.9 |
| 20260902210020 | 72 | 32 | 3.0 | 9.0 | 0.00 | 0.00 | 0.00 | 40 | 1005.3 |
| 20260902204535 | 71 | 314 | 2.0 | 6.0 | 0.00 | 0.00 | 0.00 | 41 | 1005.1 |
| 20260902203021 | 71 | 250 | 1.0 | 9.0 | 0.00 | 0.00 | 0.00 | 41 | 1005.4 |
| 20260902201635 | 72 | 270 | 4.0 | 10.0 | 0.00 | 0.00 | 0.00 | 42 | 1005.4 |
| 20260902200016 | 73 | 11 | 2.0 | 10.0 | 0.00 | 0.00 | 0.00 | 39 | 1005.5 |
| 20260902194514 | 73 | 32 | 7.0 | 14.0 | 0.00 | 0.00 | 0.00 | 37 | 1005.6 |
| 20260902193010 | 73 | 15 | 5.0 | 11.0 | 0.00 | 0.00 | 0.00 | 38 | 1005.8 |
| 20260902191515 | 72 | 42 | 6.0 | 13.0 | 0.00 | 0.00 | 0.00 | 38 | 1006.0 |
| 20260902190007 | 72 | 56 | 8.0 | 18.0 | 0.00 | 0.00 | 0.00 | 38 | 1006.2 |
| 20260902184505 | 72 | 326 | 9.0 | 17.0 | 0.00 | 0.00 | 0.00 | 37 | 1006.1 |
| 20260902183103 | 72 | 101 | 4.0 | 9.0 | 0.00 | 0.00 | 0.00 | 40 | 1006.2 |
| 20260902181614 | 71 | 126 | 1.0 | 8.0 | 0.00 | 0.00 | 0.00 | 42 | 1006.5 |
| 20260902180100 | 69 | 270 | 1.0 | 6.0 | 0.00 | 0.00 | 0.00 | 47 | 1006.5 |
| 20260902174551 | 67 | 271 | 4.0 | 8.0 | 0.00 | 0.00 | 0.00 | 51 | 1006.7 |
| 20260902173051 | 67 | 287 | 2.0 | 5.0 | 0.00 | 0.00 | 0.00 | 51 | 1006.7 |
| 20260902171558 | 65 | 248 | 0.0 | 5.0 | 0.00 | 0.00 | 0.00 | 58 | 1006.8 |
| 20260902170047 | 65 | 256 | 2.0 | 5.0 | 0.00 | 0.00 | 0.00 | 59 | 1006.9 |
| 20260902164555 | 65 | 215 | 1.0 | 5.0 | 0.00 | 0.00 | 0.00 | 59 | 1006.9 |
| 20260902163047 | 64 | 233 | 2.0 | 4.0 | 0.00 | 0.00 | 0.00 | 60 | 1006.9 |